Orbital Elements at Epoch 2459200.5 (2020-Dec-17.0) TDB
Reference: JPL 16 (heliocentric ecliptic J2000)
Element | Value | Uncertainty (1-sigma) | Units |
e | .1922750166139887 | 6.7683e-08 | |
a | 2.275010956024526 | 1.6313e-08 | au |
q | 1.837583186657904 | 1.6078e-07 | au |
i | 5.154540709279132 | 5.8663e-06 | deg |
node | 197.8329705896735 | 4.6743e-05 | deg |
peri | 142.9335906392715 | 4.8082e-05 | deg |
M | 299.3662576545548 | 1.415e-05 | deg |
tp | 2459411.598690249549 (2021-Jul-16.09869025) | 5.0912e-05 | TDB |
period | 1253.35375238547 3.43 | 1.3481e-05 3.691e-08 | d yr |
n | .2872293630707397 | 3.0894e-09 | deg/d |
Q | 2.712438725391148 | 1.945e-08 | au |
|
| | Orbit Determination Parameters
Additional Information
|